Total_Precipitation_Accumulation
2.69 3.00 3.01 3.21 2.82 2.75 2.90 2.86 2.60 2.47 2.23 2.05 1.96 1.93 2.05 2.08 2.13 2.37 2.51 2.48 2.78 3.38 3.98 4.28 4.31 4.24 4.15 3.97 3.76 3.61 3.30 3.10 2.92 2.63 2.31 2.05 1.94 1.86 1.87 1.94 1.92 1.82 1.81
3.08 3.42 3.56 3.65 3.39 3.41 3.63 3.64 3.37 3.12 2.84 2.76 2.52 2.49 2.42 2.45 2.67 2.67 2.64 2.58 2.61 2.87 3.56 4.07 4.37 4.57 4.55 4.26 3.91 3.74 3.57 3.35 3.19 2.92 2.64 2.42 2.29 2.15 2.00 1.98 1.99 1.91 1.80
3.64 3.75 4.10 4.09 3.87 3.86 3.91 3.88 4.07 3.99 3.47 3.16 3.06 3.03 2.92 2.78 2.98 3.09 3.18 3.05 2.82 2.85 3.11 3.64 3.98 4.19 4.37 4.44 4.24 4.03 3.93 3.57 3.29 3.06 2.87 2.71 2.62 2.50 2.31 2.13 2.10 2.11 1.95
3.99 4.03 4.08 4.18 4.11 4.08 4.39 4.56 4.47 4.38 4.14 3.79 3.66 3.41 3.20 3.20 2.99 3.00 3.13 3.05 3.05 2.79 2.70 2.88 3.24 3.40 3.79 4.27 4.52 4.55 4.34 4.01 3.64 3.38 3.23 3.07 2.88 2.66 2.47 2.30 2.21 2.18 2.07
4.48 4.55 4.53 4.68 4.53 4.60 4.62 4.46 4.89 4.86 4.73 4.28 3.81 3.57 3.24 3.18 3.05 2.75 2.79 2.83 2.84 2.76 2.70 2.62 2.90 3.15 3.47 3.97 4.45 4.76 4.74 4.49 4.16 3.87 3.70 3.53 3.29 2.96 2.65 2.47 2.40 2.30 2.25
5.32 5.33 5.28 5.31 5.18 5.04 4.98 4.94 5.04 4.80 4.63 4.35 3.80 3.51 3.15 2.79 2.72 2.72 2.47 2.61 2.56 2.37 2.52 2.65 2.81 2.74 3.18 3.52 3.99 4.42 4.60 4.72 4.57 4.16 3.88 3.81 3.67 3.35 3.03 2.82 2.68 2.54 2.47
5.83 5.70 5.53 5.67 5.50 5.24 5.03 5.00 4.97 4.83 4.47 4.43 4.44 3.94 3.22 2.77 2.55 2.36 2.39 2.47 2.30 2.28 2.59 2.64 2.62 2.58 2.57 2.91 3.23 3.62 4.05 4.45 4.77 4.72 4.46 4.19 3.83 3.45 3.23 3.12 3.03 2.83 2.64
6.12 5.92 5.97 5.79 5.61 5.50 5.22 5.01 4.96 4.85 4.48 4.53 4.54 4.50 3.70 3.12 2.46 1.92 2.05 2.11 2.08 2.16 2.28 2.28 2.29 2.36 2.39 2.51 2.51 2.97 3.51 3.87 4.41 4.72 4.70 4.25 3.88 3.55 3.43 3.37 3.29 3.15 3.00
6.36 6.25 6.26 5.98 5.77 5.53 5.18 4.89 4.77 4.69 4.56 4.56 4.42 4.53 3.95 3.24 2.68 2.15 1.87 1.78 1.88 2.07 2.09 2.21 2.15 2.17 2.24 2.43 2.52 2.59 2.79 2.89 3.43 4.01 4.28 4.29 4.10 3.77 3.56 3.53 3.49 3.42 3.36
5.71 5.64 5.70 5.58 5.40 5.09 4.85 4.52 4.41 4.37 4.53 4.35 4.29 4.07 3.76 3.41 3.19 2.72 2.24 1.96 1.92 1.94 1.98 2.01 2.04 2.13 2.20 2.35 2.50 2.49 2.45 2.38 2.58 2.98 3.33 3.48 3.51 3.44 3.43 3.44 3.48 3.55 3.52
4.92 4.73 4.78 4.70 4.54 4.35 4.19 4.14 4.19 4.10 4.04 3.87 3.76 3.80 3.85 3.75 3.34 2.97 2.59 2.28 2.15 2.02 2.03 2.05 2.19 2.21 2.20 2.26 2.30 2.26 2.30 2.21 2.13 2.36 2.61 2.80 3.02 3.16 3.26 3.34 3.36 3.46 3.53
4.37 4.02 3.92 3.86 3.67 3.50 3.52 3.56 3.67 3.63 3.67 3.67 3.59 3.46 3.46 3.46 3.23 3.13 2.79 2.46 2.39 2.17 2.09 2.02 2.02 2.11 2.19 2.23 2.19 2.37 2.10 1.90 1.80 1.88 2.10 2.33 2.60 2.84 2.98 3.14 3.32 3.44 3.53
3.73 3.44 3.26 3.21 3.10 3.04 3.05 3.22 3.34 3.28 3.24 3.30 3.26 3.17 3.12 3.05 3.02 3.03 3.11 2.82 2.47 2.14 2.09 1.98 1.86 1.92 1.95 2.12 2.21 2.24 1.83 1.64 1.62 1.70 1.84 1.94 2.14 2.38 2.58 2.75 2.93 3.11 3.16
3.08 2.92 2.82 2.76 2.67 2.59 2.55 2.77 2.89 2.95 2.96 3.02 2.97 3.09 3.04 2.92 2.93 2.89 2.96 3.07 2.88 2.51 2.27 2.06 1.93 1.93 2.00 2.10 2.25 2.21 1.85 1.84 1.71 1.74 1.78 1.74 1.76 1.87 2.00 2.21 2.34 2.42 2.52
2.55 2.42 2.38 2.40 2.37 2.33 2.38 2.58 2.63 2.58 2.64 2.66 2.73 2.86 2.83 2.79 2.85 2.81 2.90 3.09 3.22 2.99 2.62 2.28 2.14 1.98 2.08 2.17 2.37 1.98 1.96 2.13 1.91 1.77 1.69 1.63 1.60 1.54 1.55 1.69 1.76 1.76 1.83
2.25 2.18 2.14 2.15 2.18 2.14 2.16 2.29 2.39 2.44 2.43 2.39 2.49 2.68 2.70 2.66 2.83 2.92 3.00 3.05 3.11 3.12 2.85 2.38 2.26 2.10 2.11 2.05 2.42 2.07 2.03 2.14 1.86 1.62 1.49 1.40 1.33 1.28 1.31 1.41 1.47 1.51 1.57
2.40 2.22 2.12 2.17 2.18 2.11 2.08 2.10 2.03 2.12 2.22 2.26 2.30 2.41 2.51 2.61 2.76 2.81 2.90 2.92 2.99 3.05 2.90 2.47 2.34 2.33 2.33 2.26 2.32 2.18 2.06 2.00 1.82 1.68 1.46 1.31 1.24 1.20 1.21 1.29 1.34 1.34 1.41
2.11 2.07 2.06 2.11 2.10 2.02 2.01 1.94 1.81 1.88 1.99 2.06 2.12 2.21 2.27 2.36 2.47 2.42 2.53 2.56 2.62 2.74 2.72 2.62 2.59 2.51 2.47 2.41 2.29 2.11 1.82 1.60 1.56 1.60 1.44 1.34 1.28 1.23 1.25 1.30 1.33 1.34 1.32
2.04 2.06 2.08 2.08 2.09 2.05 2.03 1.97 1.93 1.88 1.79 1.80 1.89 1.94 1.99 2.09 2.07 2.01 2.05 2.05 2.16 2.29 2.55 2.53 2.44 2.57 2.49 2.46 2.54 2.21 1.94 1.91 1.47 1.44 1.36 1.31 1.29 1.24 1.21 1.20 1.19 1.19 1.18
1.89 1.98 1.95 1.91 1.89 1.83 1.74 1.78 1.84 1.82 1.72 1.68 1.68 1.69 1.67 1.62 1.62 1.68 1.71 1.78 1.94 2.25 2.47 2.44 2.27 2.26 2.30 2.27 2.47 2.32 2.19 2.08 1.79 1.38 1.33 1.21 1.20 1.20 1.16 1.08 1.04 1.00 1.01
1.62 1.74 1.73 1.72 1.68 1.57 1.46 1.50 1.58 1.58 1.63 1.60 1.57 1.54 1.46 1.43 1.48 1.46 1.38 1.54 1.82 2.13 2.27 2.32 2.26 2.17 2.10 2.15 2.17 2.05 2.04 2.07 1.98 1.64 1.56 1.29 1.17 1.17 1.19 1.15 1.10 0.99 0.91
1.61 1.63 1.62 1.56 1.46 1.25 1.28 1.31 1.30 1.36 1.47 1.53 1.52 1.43 1.34 1.33 1.32 1.28 1.26 1.36 1.53 1.72 1.90 2.04 2.05 2.02 1.99 2.04 2.12 2.11 2.11 2.15 2.08 1.80 1.81 1.64 1.39 1.46 1.38 1.22 1.13 1.03 0.97
1.62 1.54 1.46 1.38 1.27 1.20 1.19 1.15 1.19 1.26 1.37 1.44 1.48 1.50 1.31 1.14 1.25 1.25 1.28 1.31 1.32 1.40 1.55 1.78 1.90 1.85 1.92 2.03 2.25 2.20 2.23 2.23 2.10 1.91 2.03 1.96 1.76 1.69 1.40 1.20 1.22 1.07 0.98
1.60 1.52 1.41 1.32 1.26 1.13 1.11 1.08 1.10 1.16 1.32 1.37 1.37 1.39 1.43 1.38 1.31 1.33 1.31 1.30 1.26 1.29 1.38 1.49 1.65 1.71 1.73 1.89 2.12 2.13 2.16 2.16 2.04 1.90 2.01 2.06 1.77 1.70 1.38 1.42 1.34 1.11 0.98
1.54 1.44 1.36 1.35 1.32 1.17 1.09 1.04 1.10 1.19 1.30 1.28 1.20 1.20 1.19 1.19 1.23 1.32 1.39 1.45 1.42 1.36 1.21 1.28 1.34 1.47 1.60 1.70 1.82 1.90 2.03 2.19 2.09 1.89 1.89 2.01 1.84 1.73 1.56 1.57 1.40 1.23 1.12
1.50 1.38 1.31 1.34 1.34 1.27 1.10 0.98 1.05 1.10 1.13 1.14 1.17 1.14 1.08 1.01 1.01 1.05 1.12 1.35 1.49 1.40 1.31 1.32 1.43 1.58 1.65 1.71 1.72 1.78 1.95 2.11 2.10 2.08 1.87 1.97 1.94 1.93 1.84 1.56 1.44 1.39 1.35